[Date Prev][Date Next][Thread Prev][Thread Next] - [Date Index][Thread Index][Author Index]

2 Line ISS Keps 8-2



ISS
1 25544U 98067A   01214.37675569  .00015562  00000-0  21025-3 0  2902
2 25544  51.6377 215.4420 0011435 328.0067 172.9057 15.57886238154294


----
Via the sarex mailing list at AMSAT.ORG courtesy of AMSAT-NA.
To unsubscribe, send "unsubscribe sarex" to Majordomo@amsat.org



AMSAT Top AMSAT Home